This is the latest recevied weather packets stored in our database for station/object KF0ZH. If no packets are shown the sender has not sent any weather packets the latest 10 day(s).
| Time | Temp. | Humidity | Pressure | Rain* | Wind** | Luminosity | Snow |
|---|---|---|---|---|---|---|---|
| 1777731122 | 9.44° C | 66% | 1018.1 hPa | 0 mm | 0 m/s | - | - |
| 1777730522 | 8.89° C | 68% | 1018.2 hPa | 0 mm | 2.68 m/s, 240° | - | - |
| 1777730222 | 8.33° C | 69% | 1018.3 hPa | 0 mm | 0 m/s | - | - |
| 1777729321 | 7.78° C | 70% | 1018.3 hPa | 0 mm | 0 m/s | - | - |
| 1777729022 | 7.78° C | 72% | 1018.3 hPa | 0 mm | 0 m/s | - | - |
| 1777728723 | 7.22° C | 73% | 1018.3 hPa | 0 mm | 0 m/s | - | - |
| 1777728422 | 7.22° C | 73% | 1018.5 hPa | 0 mm | 1.34 m/s, 260° | - | - |
| 1777727822 | 6.67° C | 75% | 1018.5 hPa | 0 mm | 0 m/s | - | - |
| 1777727522 | 6.67° C | 74% | 1018.5 hPa | 0 mm | 0 m/s | - | - |
| 1777727221 | 6.11° C | 75% | 1018.5 hPa | 0 mm | 1.79 m/s, 262° | - | - |
| 1777726621 | 5.56° C | 77% | 1018.5 hPa | 0 mm | 0 m/s | - | - |
| 1777726102 | 5.56° C | 77% | 1018.5 hPa | 0 mm | 1.34 m/s, 209° | - | - |
| 1777726021 | 5.56° C | 77% | 1018.5 hPa | 0 mm | 1.34 m/s, 209° | - | - |
| 1777725723 | 5° C | 78% | 1018.6 hPa | 0 mm | 0 m/s | - | - |
| 1777724821 | 4.44° C | 78% | 1018.5 hPa | 0 mm | 0 m/s | - | - |
| 1777724221 | 4.44° C | 79% | 1018.3 hPa | 0 mm | 0 m/s | - | - |
| 1777723921 | 3.89° C | 80% | 1018.5 hPa | 0 mm | 0 m/s | - | - |
| 1777723623 | 3.89° C | 81% | 1018.5 hPa | 0 mm | 0 m/s | - | - |
| 1777723055 | 3.33° C | 82% | 1018.3 hPa | 0 mm | 0 m/s | - | - |
| 1777723022 | 3.33° C | 82% | 1018.3 hPa | 0 mm | 0 m/s | - | - |
| 1777722425 | 2.78° C | 82% | 1018.1 hPa | 0 mm | 0 m/s | - | - |
| 1777722121 | 2.78° C | 82% | 1018.1 hPa | 0 mm | 0 m/s | - | - |
| 1777721521 | 2.78° C | 82% | 1018.2 hPa | 0 mm | 0 m/s | - | - |
| 1777720621 | 3.33° C | 81% | 1018.1 hPa | 0 mm | 0 m/s | - | - |
| 1777720467 | 3.33° C | 80% | 1018 hPa | 0 mm | 0 m/s | - | - |
* Rain latest hour (hover to see other rain measurements)
** Current wind speed in m/s (hover to see current wind gust speed)